Location: Newark
(51.0500°N, 12.4500°E)
Time: 02:18:29
(UTC+00:00)

Tiros 1 - Pass Details

Date: 25 February 2020
Orbit: 630 x 664 km, 48.4° (Epoch: 08 April)

Event Time Altitude Azimuth Distance (km) Brightness Sun altitude
Rises 00:35:14 0° 223° (SW) 2,929 - -45.8°
Reaches altitude 10° 00:37:46 10° 213° (SSW) 2,018 - -45.6°
Maximum altitude 00:41:50 31° 152° (SSE) 1,120 - -45.3°
Drops below altitude 10° 00:45:53 10° 91° (E) 2,012 - -45.0°
Sets 00:48:24 0° 81° (E) 2,920 - -44.8°
